Time,TemperatureF,DewpointF,PressureIn,WindDirection,WindDirectionDegrees,WindSpeedMPH,WindSpeedGustMPH,Humidity,HourlyPrecipIn,Conditions,Clouds,dailyrainin,SoftwareType,DateUTC
2013-02-28 00:10:00,40.2,40.0,29.58,WNW,287,1.0,4.0,98,0.00,,,0.00,weatherlink.com 1.10,2013-02-28 05:10:00,
2013-02-28 00:25:00,40.0,40.0,29.58,WNW,297,1.0,6.0,98,0.00,,,0.00,weatherlink.com 1.10,2013-02-28 05:25:00,
2013-02-28 00:40:00,39.4,39.0,29.58,West,260,1.0,4.0,98,0.00,,,0.00,weatherlink.com 1.10,2013-02-28 05:40:00,
2013-02-28 00:55:00,39.0,39.0,29.58,West,269,1.0,3.0,98,0.00,,,0.00,weatherlink.com 1.10,2013-02-28 05:55:00,
2013-02-28 01:10:00,38.6,38.0,29.58,West,266,1.0,5.0,98,0.00,,,0.00,weatherlink.com 1.10,2013-02-28 06:10:00,
2013-02-28 01:25:00,38.1,38.0,29.58,West,281,1.0,2.0,98,0.00,,,0.00,weatherlink.com 1.10,2013-02-28 06:25:00,
2013-02-28 01:40:00,37.6,37.0,29.57,North,353,0.0,3.0,98,0.00,,,0.00,weatherlink.com 1.10,2013-02-28 06:40:00,
2013-02-28 01:55:00,36.9,36.0,29.57,WNW,290,0.0,1.0,98,0.00,,,0.00,weatherlink.com 1.10,2013-02-28 06:55:00,
2013-02-28 02:10:00,36.0,36.0,29.57,WNW,290,0.0,0.0,98,0.00,,,0.00,weatherlink.com 1.10,2013-02-28 07:10:00,
2013-02-28 02:40:00,36.4,36.0,29.58,WNW,291,3.0,4.0,98,0.00,,,0.00,weatherlink.com 1.10,2013-02-28 07:40:00,
2013-02-28 02:55:00,36.6,36.0,29.58,WNW,299,0.0,3.0,98,0.00,,,0.00,weatherlink.com 1.10,2013-02-28 07:55:00,
2013-02-28 03:10:00,36.7,36.0,29.59,West,260,0.0,2.0,98,0.00,,,0.00,weatherlink.com 1.10,2013-02-28 08:10:00,
2013-02-28 03:25:00,36.5,36.0,29.58,WSW,243,0.0,1.0,98,0.00,,,0.00,weatherlink.com 1.10,2013-02-28 08:25:00,
2013-02-28 03:40:00,36.2,36.0,29.59,WSW,256,0.0,0.0,98,0.00,,,0.00,weatherlink.com 1.10,2013-02-28 08:40:00,
2013-02-28 03:55:00,36.2,36.0,29.60,SW,232,0.0,2.0,98,0.00,,,0.00,weatherlink.com 1.10,2013-02-28 08:55:00,
2013-02-28 04:10:00,36.4,36.0,29.60,WSW,252,1.0,2.0,98,0.00,,,0.00,weatherlink.com 1.10,2013-02-28 09:10:00,
2013-02-28 04:25:00,36.3,36.0,29.60,WNW,294,0.0,1.0,98,0.00,,,0.00,weatherlink.com 1.10,2013-02-28 09:25:00,
2013-02-28 04:40:00,36.3,36.0,29.59,WNW,294,0.0,0.0,98,0.00,,,0.00,weatherlink.com 1.10,2013-02-28 09:40:00,
2013-02-28 04:55:00,36.4,36.0,29.60,West,267,0.0,0.0,98,0.00,,,0.00,weatherlink.com 1.10,2013-02-28 09:55:00,
2013-02-28 05:11:00,36.3,36.0,29.60,West,266,0.0,0.0,98,0.00,,,0.00,weatherlink.com 1.10,2013-02-28 10:11:00,
2013-02-28 05:25:00,36.2,36.0,29.59,West,266,0.0,0.0,98,0.00,,,0.00,weatherlink.com 1.10,2013-02-28 10:25:00,
2013-02-28 05:40:00,36.1,36.0,29.59,WNW,297,0.0,0.0,98,0.00,,,0.00,weatherlink.com 1.10,2013-02-28 10:40:00,
2013-02-28 05:56:00,36.2,36.0,29.59,NE,40,0.0,1.0,98,0.00,,,0.00,weatherlink.com 1.10,2013-02-28 10:56:00,
2013-02-28 06:11:00,36.2,36.0,29.59,NNE,23,0.0,1.0,98,0.00,,,0.00,weatherlink.com 1.10,2013-02-28 11:11:00,
2013-02-28 06:26:00,36.0,36.0,29.59,ENE,75,0.0,1.0,98,0.00,,,0.00,weatherlink.com 1.10,2013-02-28 11:26:00,
2013-02-28 06:41:00,35.9,35.0,29.59,NE,47,0.0,1.0,98,0.00,,,0.00,weatherlink.com 1.10,2013-02-28 11:41:00,
2013-02-28 06:56:00,36.0,36.0,29.60,NE,47,0.0,0.0,98,0.00,,,0.00,weatherlink.com 1.10,2013-02-28 11:56:00,
2013-02-28 07:11:00,36.3,36.0,29.60,NE,47,0.0,0.0,98,0.00,,,0.00,weatherlink.com 1.10,2013-02-28 12:11:00,
2013-02-28 07:26:00,36.4,36.0,29.60,NE,44,0.0,1.0,98,0.00,,,0.00,weatherlink.com 1.10,2013-02-28 12:26:00,
2013-02-28 07:41:00,36.7,37.0,29.61,NE,47,0.0,1.0,99,0.00,,,0.00,weatherlink.com 1.10,2013-02-28 12:41:00,
2013-02-28 07:56:00,37.0,37.0,29.60,NE,41,0.0,1.0,99,0.01,,,0.01,weatherlink.com 1.10,2013-02-28 12:56:00,
2013-02-28 08:11:00,37.5,37.0,29.60,NE,42,0.0,1.0,99,0.01,,,0.01,weatherlink.com 1.10,2013-02-28 13:11:00,
2013-02-28 08:26:00,38.5,38.0,29.60,ENE,68,1.0,2.0,99,0.01,,,0.01,weatherlink.com 1.10,2013-02-28 13:26:00,
2013-02-28 08:41:00,38.4,38.0,29.60,ENE,68,3.0,3.0,98,0.01,,,0.01,weatherlink.com 1.10,2013-02-28 13:41:00,
2013-02-28 08:56:00,38.6,38.0,29.61,ENE,68,1.0,2.0,98,0.00,,,0.01,weatherlink.com 1.10,2013-02-28 13:56:00,
2013-02-28 09:11:00,38.1,38.0,29.60,East,82,1.0,3.0,98,0.00,,,0.01,weatherlink.com 1.10,2013-02-28 14:11:00,
2013-02-28 09:26:00,38.2,38.0,29.59,ENE,71,0.0,2.0,98,0.00,,,0.01,weatherlink.com 1.10,2013-02-28 14:26:00,
2013-02-28 09:41:00,38.8,38.0,29.59,ENE,68,0.0,1.0,98,0.00,,,0.01,weatherlink.com 1.10,2013-02-28 14:41:00,
2013-02-28 09:56:00,38.9,38.0,29.59,East,88,1.0,1.0,98,0.00,,,0.01,weatherlink.com 1.10,2013-02-28 14:56:00,
2013-02-28 10:11:00,39.4,39.0,29.59,ENE,78,0.0,1.0,98,0.00,,,0.01,weatherlink.com 1.10,2013-02-28 15:11:00,
2013-02-28 10:26:00,39.3,39.0,29.59,ENE,69,1.0,1.0,98,0.00,,,0.01,weatherlink.com 1.10,2013-02-28 15:26:00,
2013-02-28 10:41:00,39.1,39.0,29.59,ENE,64,1.0,2.0,98,0.00,,,0.01,weatherlink.com 1.10,2013-02-28 15:41:00,
2013-02-28 10:56:00,40.4,40.0,29.59,ENE,70,0.0,1.0,98,0.00,,,0.01,weatherlink.com 1.10,2013-02-28 15:56:00,
2013-02-28 11:11:00,40.4,40.0,29.59,SSE,147,0.0,1.0,98,0.00,,,0.01,weatherlink.com 1.10,2013-02-28 16:11:00,
2013-02-28 11:26:00,41.1,41.0,29.58,East,79,1.0,2.0,98,0.00,,,0.01,weatherlink.com 1.10,2013-02-28 16:26:00,
2013-02-28 11:41:00,41.5,41.0,29.58,SSE,157,0.0,3.0,97,0.00,,,0.01,weatherlink.com 1.10,2013-02-28 16:41:00,
2013-02-28 11:56:00,41.4,40.0,29.57,ENE,76,2.0,4.0,96,0.00,,,0.01,weatherlink.com 1.10,2013-02-28 16:56:00,
2013-02-28 12:11:00,41.8,41.0,29.57,East,86,1.0,3.0,97,0.00,,,0.01,weatherlink.com 1.10,2013-02-28 17:11:00,
2013-02-28 12:26:00,41.5,41.0,29.56,East,94,2.0,4.0,97,0.00,,,0.01,weatherlink.com 1.10,2013-02-28 17:26:00,
2013-02-28 12:41:00,41.5,41.0,29.55,East,96,2.0,5.0,96,0.00,,,0.01,weatherlink.com 1.10,2013-02-28 17:41:00,
2013-02-28 12:56:00,41.9,41.0,29.54,SE,146,2.0,5.0,96,0.00,,,0.01,weatherlink.com 1.10,2013-02-28 17:56:00,
2013-02-28 13:11:00,42.2,41.0,29.54,ENE,76,2.0,4.0,95,0.00,,,0.01,weatherlink.com 1.10,2013-02-28 18:11:00,
2013-02-28 13:26:00,42.5,40.0,29.53,East,86,2.0,5.0,92,0.00,,,0.01,weatherlink.com 1.10,2013-02-28 18:26:00,
2013-02-28 13:41:00,42.4,40.0,29.53,East,85,2.0,4.0,91,0.00,,,0.01,weatherlink.com 1.10,2013-02-28 18:41:00,
2013-02-28 13:56:00,43.3,40.0,29.52,ENE,72,2.0,4.0,89,0.00,,,0.01,weatherlink.com 1.10,2013-02-28 18:56:00,
2013-02-28 14:11:00,43.7,41.0,29.52,SE,127,0.0,4.0,89,0.00,,,0.01,weatherlink.com 1.10,2013-02-28 19:11:00,
2013-02-28 14:26:00,44.3,41.0,29.53,ESE,121,1.0,2.0,87,0.00,,,0.01,weatherlink.com 1.10,2013-02-28 19:26:00,
2013-02-28 14:41:00,44.5,41.0,29.52,SSE,156,2.0,3.0,88,0.00,,,0.01,weatherlink.com 1.10,2013-02-28 19:41:00,
2013-02-28 14:56:00,43.9,41.0,29.52,SSE,161,0.0,3.0,89,0.00,,,0.01,weatherlink.com 1.10,2013-02-28 19:56:00,
2013-02-28 15:11:00,44.3,41.0,29.52,SSE,148,0.0,4.0,87,0.00,,,0.01,weatherlink.com 1.10,2013-02-28 20:11:00,
2013-02-28 15:26:00,44.0,40.0,29.52,SE,141,1.0,3.0,87,0.00,,,0.01,weatherlink.com 1.10,2013-02-28 20:26:00,
2013-02-28 15:41:00,43.5,40.0,29.52,SE,140,0.0,3.0,88,0.00,,,0.01,weatherlink.com 1.10,2013-02-28 20:41:00,
2013-02-28 15:56:00,43.9,40.0,29.52,SE,139,0.0,2.0,87,0.00,,,0.01,weatherlink.com 1.10,2013-02-28 20:56:00,
2013-02-28 16:11:00,43.8,40.0,29.51,SE,143,0.0,1.0,86,0.00,,,0.01,weatherlink.com 1.10,2013-02-28 21:11:00,
2013-02-28 16:26:00,42.6,39.0,29.51,SE,136,0.0,1.0,88,0.00,,,0.01,weatherlink.com 1.10,2013-02-28 21:26:00,
2013-02-28 16:41:00,42.0,39.0,29.51,SSE,151,0.0,1.0,89,0.00,,,0.01,weatherlink.com 1.10,2013-02-28 21:41:00,
2013-02-28 16:56:00,41.5,39.0,29.51,SSE,150,0.0,1.0,90,0.00,,,0.01,weatherlink.com 1.10,2013-02-28 21:56:00,
2013-02-28 17:11:00,40.9,38.0,29.51,East,79,0.0,1.0,90,0.00,,,0.01,weatherlink.com 1.10,2013-02-28 22:11:00,
2013-02-28 17:26:00,40.5,38.0,29.51,East,81,0.0,1.0,91,0.00,,,0.01,weatherlink.com 1.10,2013-02-28 22:26:00,
2013-02-28 17:41:00,40.3,38.0,29.52,South,176,0.0,1.0,91,0.00,,,0.01,weatherlink.com 1.10,2013-02-28 22:41:00,
2013-02-28 17:56:00,40.0,38.0,29.52,South,176,0.0,1.0,91,0.00,,,0.01,weatherlink.com 1.10,2013-02-28 22:56:00,
2013-02-28 18:11:00,39.9,38.0,29.52,South,181,0.0,0.0,92,0.00,,,0.01,weatherlink.com 1.10,2013-02-28 23:11:00,
2013-02-28 18:26:00,39.9,38.0,29.52,WSW,238,0.0,1.0,93,0.00,,,0.01,weatherlink.com 1.10,2013-02-28 23:26:00,
2013-02-28 18:41:00,39.9,38.0,29.52,West,270,0.0,1.0,93,0.00,,,0.01,weatherlink.com 1.10,2013-02-28 23:41:00,
2013-02-28 18:56:00,40.1,38.0,29.52,WSW,255,0.0,2.0,93,0.00,,,0.01,weatherlink.com 1.10,2013-02-28 23:56:00,
2013-02-28 19:11:00,40.3,39.0,29.52,West,263,0.0,2.0,93,0.00,,,0.01,weatherlink.com 1.10,2013-03-01 00:11:00,
2013-02-28 19:26:00,40.4,39.0,29.52,West,269,0.0,1.0,93,0.00,,,0.01,weatherlink.com 1.10,2013-03-01 00:26:00,
2013-02-28 19:41:00,40.5,39.0,29.52,WSW,257,1.0,1.0,93,0.00,,,0.01,weatherlink.com 1.10,2013-03-01 00:41:00,
2013-02-28 19:56:00,40.6,39.0,29.52,West,272,0.0,1.0,93,0.00,,,0.01,weatherlink.com 1.10,2013-03-01 00:56:00,
2013-02-28 20:11:00,40.5,39.0,29.52,West,269,0.0,1.0,93,0.00,,,0.01,weatherlink.com 1.10,2013-03-01 01:11:00,
2013-02-28 20:26:00,40.4,39.0,29.52,WNW,284,0.0,1.0,93,0.00,,,0.01,weatherlink.com 1.10,2013-03-01 01:26:00,
2013-02-28 20:41:00,40.4,39.0,29.52,West,264,1.0,2.0,93,0.00,,,0.01,weatherlink.com 1.10,2013-03-01 01:41:00,
2013-02-28 20:56:00,40.5,39.0,29.52,West,273,1.0,2.0,93,0.00,,,0.01,weatherlink.com 1.10,2013-03-01 01:56:00,
2013-02-28 21:12:00,40.5,39.0,29.52,WNW,293,0.0,1.0,93,0.00,,,0.01,weatherlink.com 1.10,2013-03-01 02:12:00,
2013-02-28 21:27:00,40.5,39.0,29.52,West,281,0.0,1.0,93,0.00,,,0.01,weatherlink.com 1.10,2013-03-01 02:27:00,
2013-02-28 21:42:00,40.5,39.0,29.52,WNW,297,0.0,1.0,93,0.00,,,0.01,weatherlink.com 1.10,2013-03-01 02:42:00,
2013-02-28 21:57:00,40.4,39.0,29.52,NNW,333,0.0,1.0,93,0.00,,,0.01,weatherlink.com 1.10,2013-03-01 02:57:00,
2013-02-28 22:12:00,40.3,39.0,29.51,West,260,1.0,2.0,93,0.00,,,0.01,weatherlink.com 1.10,2013-03-01 03:12:00,
2013-02-28 22:27:00,40.2,38.0,29.52,West,259,0.0,1.0,92,0.00,,,0.01,weatherlink.com 1.10,2013-03-01 03:27:00,
2013-02-28 22:42:00,39.9,38.0,29.51,WSW,257,0.0,0.0,92,0.00,,,0.01,weatherlink.com 1.10,2013-03-01 03:42:00,
2013-02-28 22:57:00,39.6,38.0,29.51,WNW,287,0.0,2.0,93,0.00,,,0.01,weatherlink.com 1.10,2013-03-01 03:57:00,
2013-02-28 23:12:00,39.3,38.0,29.51,West,270,0.0,2.0,93,0.00,,,0.01,weatherlink.com 1.10,2013-03-01 04:12:00,
2013-02-28 23:27:00,39.2,37.0,29.51,WNW,297,0.0,3.0,92,0.00,,,0.01,weatherlink.com 1.10,2013-03-01 04:27:00,
2013-02-28 23:42:00,39.1,37.0,29.51,NNW,340,1.0,5.0,91,0.00,,,0.01,weatherlink.com 1.10,2013-03-01 04:42:00,
2013-02-28 23:57:00,39.0,36.0,29.51,WNW,285,0.0,3.0,90,0.00,,,0.01,weatherlink.com 1.10,2013-03-01 04:57:00,